Flag for Canada Weather past 2 weeks in Hay River, Northwest Territories, Canada

Now
45 °F

Partly cloudy.


Feels Like: 41 °F
Forecast: 42 / 46 °F
Wind: 6 mph from Northeast

Location: Hay River

Current Time: Sep 15, 2014 at 4:27:31 AM

Latest Report: Sep 15, 2014 at 4:00 AM


Visibility: 15 mi

Pressure: 29.96 "Hg

Humidity: 87%

Dew point: 41 °F

Location of Hay RiverLocation

Historic Weather in Hay River — Graph

°F

Hay River temperature yesterday

Maximum temperature yesterday: 63 °F (at 4:00 PM)
Minimum temperature yesterday: 36 °F (at 7:00 AM)
Average temperature yesterday: 48 °F

Past Weeks' High & Low Weather Summary

 TemperatureHumidityPressure
High68 °F (Sep 3, 2:00 PM)100% (Aug 31, 3:00 AM)30.57 "Hg (Aug 31, 3:00 AM)
Low28 °F (Sep 10, 1:00 AM)28% (Sep 10, 5:00 PM)29.51 "Hg (Aug 31, 3:00 AM)
Average46 °F68%30.05 "Hg
* Reported Aug 31 3:00 AM — Sep 15 3:00 AM, Hay River, Weather by CustomWeather, © 2014

Note: Actual official high and low records may vary slightly from our data, if they occured in-between our weather recording intervals... More about our weather records

Advertising

Hay River weather history for previous 24 hours

 ConditionsComfort  
Time TempWeatherWind HumidityBarometerVisibility
3:00 AM
Sep 15
46 °FPassing clouds.9 mph82%29.95 "Hg15 mi
2:00 AM48 °FPassing clouds.9 mph82%29.95 "Hg15 mi
1:00 AM48 °FPassing clouds.9 mph82%29.94 "Hg15 mi
12:00 AM46 °FPassing clouds.7 mph87%29.94 "Hg15 mi
11:00 PM
Sep 14
48 °FPassing clouds.5 mph94%29.94 "Hg15 mi
10:00 PM48 °FPassing clouds.8 mph94%29.93 "Hg15 mi
9:00 PM50 °FCloudy.7 mph82%29.94 "Hg15 mi
8:00 PM50 °FMore clouds than sun.8 mph88%29.93 "Hg15 mi
7:00 PM52 °FMore clouds than sun.9 mph82%29.94 "Hg15 mi
6:00 PM54 °FBroken clouds.10 mph77%29.94 "Hg10 mi
5:00 PM59 °FPartly sunny.5 mph55%29.93 "Hg10 mi
4:00 PM63 °FMild.5 mph45%29.93 "Hg15 mi
3:00 PM61 °FBroken clouds.8 mph45%29.93 "Hg10 mi
2:00 PM57 °FBroken clouds.6 mph59%29.93 "Hg10 mi
1:00 PM57 °FScattered clouds.5 mph63%29.93 "Hg10 mi
12:00 PM54 °FPartly sunny.7 mph67%29.93 "Hg10 mi
11:00 AM52 °FPassing clouds.8 mph67%29.93 "Hg10 mi
10:00 AM50 °FPassing clouds.6 mph71%29.93 "Hg15 mi
9:00 AM45 °FPassing clouds.6 mph87%29.93 "Hg15 mi
8:00 AM39 °FPassing clouds.5 mph87%29.93 "Hg15 mi
7:00 AM36 °FPassing clouds.2 mph93%29.93 "Hg15 mi
6:00 AM39 °FClear.5 mph87%29.93 "Hg15 mi
5:00 AM37 °FClear.5 mph87%29.92 "Hg15 mi
4:00 AM37 °FClear.2 mph81%29.93 "Hg15 mi
Weather by CustomWeather, © 2014

See weather overviewHow to use our weather pages